SCP
0 0 0 0 0 0 0 0 0 0 0 0 0 0 0 0 0 0 0 0 -0 0 -0 -0 -0 -0 -0 0 0 0 0 0 0 0 0 0 0 0 0 0 0 0 0 0 0 0 0 0 0 0 0 0 0 0
0 0 0 0 0 0 0 0 0 0 0 0 0 0 0 0 0 0 0 0 -0 -0 -0 -0 -0 -0 -0 -0 0 0 0 0 0 0 0 0 0 0 0 0 0 0 0 0 0 0 0 0 0 0 -0 -0 -0 -0
0 0 0 0 0 0 0 0 0 0 0 0 0 0 0 0 0 0 0 0 -0 0 -0 -0 0 -0 -0 0 -0 0 0 0 0 0 0 0 0 0 0 0 0 0 0 0 0 0 0 0 0 0 0 -0 -0 -0
0 0 0 0 0 0 0 0 0 0 0 0 0 0 0 0 0 0 0 0 0 -0 -0 -0 0 -0 -0 -0 -0 0 0 0 0 0 0 0 0 0 0 0 0 0 0 0 0 0 0 0 0 -0 -0 -0 -0 -0
0 0 0 0 0 0 0 0 0 0 0 0 -0 0 -0 -0 0 0 0 0 0 0 0 -0 -0 -0 -0 -0 -0 -0 0 0 0 0 0 0 0 0 0 0 0 0 0 0 0 0 0 0 -0 -0 -0 -0 -0 -0
0 0 0 0 0 0 0 0 0 0 0 0 -0 0 -0 -0 0 0 0 0 0 0 0 0 -0 -0 -0 -0 -0 -0 0 0 0 0 0 0 0 0 0 0 0 0 0 0 0 0 -0 -0 -0 -0 -0 -0 -0 -0
0 0 0 0 0 0 0 0 -0 0 0 0 0 -0 -0 0 0 0 0 0 0 0 0 0 -0 -0 -0 -0 -0 0 -0 0 0 0 0 0 0 0 0 0 0 0 0 0 0 -0 -0 -0 -0 -0 -0 -0 -0 -0
0 0 0 0 0 0 0 -0 -0 0 0 0 -0 -0 -0 0 0 0 0 -0 0 0 0 0 0 0 0 0 0 0 0 0 0 0 0 0 0 0 0 0 0 0 -0 -0 -0 -0 -0 -0 -0 -0 -0 -0 -0 -0
0 0 0 0 0 0 0 0 0 0 0 -0 -0 -0 0 0 -0 -0 -0 0 0 0 0 0 0 0 -0 -0 0 0 0 0 0 0 0 0 0 0 0 0 0 0 0 -0 -0 -0 -0 -0 -0 -0 -0 -0 -0 -0
0 0 0 0 0 0 0 0 -0 -0 -0 -0 0 0 0 0 -0 0 0 0 0 0 0 0 0 0 0 0 0 0 0 0 0 0 0 0 0 0 0 0 0 0 -0 -0 -0 -0 -0 -0 -0 -0 -0 -0 0 0
0 0 0 0 0 -0 -0 -0 -0 -0 0 0 0 -0 0 -0 0 0 0 0 0 0 0 0 -0 0 -0 0 0 0 0 0 0 0 0 0 0 0 0 0 0 -0 0 0 0 0 -0 -0 -0 -0 -0 0 0 0
0 0 0 0 -0 -0 -0 -0 0 0 0 0 0 -0 -0 0 0 0 0 0 0 0 -0 0 -0 -0 -0 -0 0 0 0 0 0 0 0 0 0 0 0 0 0 -0 0 0 0 -0 -0 -0 -0 -0 -0 0 0 0
0 0 0 -0 -0 -0 -0 0 0 0 0 0 0 -0 0 0 0 0 0 0 -0 -0 -0 0 -0 0 -0 -0 0 0 0 0 0 0 0 0 0 0 0 0 0 0 0 0 0 0 -0 -0 -0 -0 0 0 0 0
0 0 -0 -0 -0 -0 -0 0 -0 -0 0 0 -0 -0 0 0 -0 0 0 0 -0 -0 -0 0 0 0 0 0 0 0 0 0 0 0 0 0 0 0 0 0 0 0 -0 0 0 -0 -0 -0 -0 -0 0 0 0 0
0 -0 -0 -0 -0 -0 -0 -0 -0 0 0 0 -0 0 0 0 0 0 -0 -0 -0 -0 -0 -0 -0 0 0 0 0 0 0 0 0 0 0 0 0 0 0 0 -0 0 0 0 0 0 0 -0 -0 0 0 0 0 0
-0 -0 0 0 0 -0 -0 -0 0 0 0 0 -0 -0 0 0 0 0 0 0 0 0 -0 0 -0 -0 0 0 0 0 0 0 0 0 0 0 0 0 0 0 0 0 0 0 -0 -0 -0 -0 -0 -0 -0 -0 0 0
0 0 0 -0 -0 -0 -0 0 0 -0 -0 0 -0 -0 0 0 0 0 -0 -0 0 -0 -0 0 -0 0 0 0 -0 0 0 0 0 0 0 0 -0 0 0 -0 -0 -0 -0 -0 -0 -0 -0 -0 -0 -0 -0 0 0 0
0 0 -0 -0 -0 -0 0 0 0 0 0 -0 0 -0 -0 0 0 -0 -0 0 -0 0 0 0 0 0 0 0 0 0 0 0 0 0 0 0 0 0 -0 -0 -0 -0 -0 -0 -0 -0 -0 -0 -0 0 0 0 0 0
0 0 -0 -0 0 0 0 0 0 0 0 -0 0 0 -0 -0 -0 -0 -0 -0 0 -0 -0 0 0 0 0 0 0 0 0 0 0 0 0 0 0 0 -0 -0 -0 -0 -0 -0 -0 -0 0 0 0 0 0 0 0 0
-0 -0 -0 0 -0 0 0 0 0 -0 0 0 0 0 0 -0 -0 0 0 0 0 -0 0 0 0 0 0 0 0 0 0 0 0 0 0 0 0 0 0 0 0 0 0 0 0 0 0 0 0 0 0 0 0 -0
0 0 -0 0 0 0 0 0 0 0 0 0 0 0 -0 0 -0 0 0 0 -0 0 0 0 0 0 0 0 0 0 0 0 0 0 0 0 0 0 0 0 0 0 0 0 0 0 0 0 -0 0 0 0 0 0
-0 -0 -0 -0 0 0 0 0 0 0 0 0 0 0 0 -0 0 0 0 -0 -0 0 0 0 0 0 0 0 0 0 -0 0 -0 -0 0 0 0 0 0 0 0 0 0 0 0 0 0 0 0 0 0 0 0 0
-0 -0 -0 -0 -0 0 0 0 0 0 0 0 0 0 0 0 0 0 -0 -0 -0 0 0 0 0 0 0 0 0 0 0 -0 -0 0 0 0 0 0 0 0 0 0 0 0 0 0 0 0 0 0 0 0 0 0
-0 0 0 -0 0 0 0 0 0 0 0 0 0 0 0 -0 -0 -0 -0 -0 -0 0 0 0 0 0 0 0 -0 -0 -0 -0 -0 -0 -0 0 -0 -0 -0 -0 -0 0 0 0 0 0 0 0 -0 -0 0 0 0 0
-0 0 -0 0 0 0 0 0 0 0 0 0 0 0 0 0 0 0 -0 -0 -0 0 -0 0 0 0 0 0 0 -0 0 0 0 0 -0 -0 -0 -0 -0 -0 0 0 0 0 0 0 0 0 0 0 0 0 0 0
0 -0 0 0 0 0 0 0 0 0 0 0 0 0 0 0 0 0 0 0 -0 -0 0 0 0 0 0 0 0 0 0 0 0 0 -0 0 0 0 0 0 0 0 0 0 0 0 -0 0 0 0 0 0 0 0
-0 -0 0 0 0 0 0 0 0 0 0 0 0 0 0 0 0 0 0 0 0 0 0 0 0 0 0 0 0 0 0 0 0 0 -0 -0 0 -0 -0 0 0 0 0 0 0 0 0 -0 0 0 0 0 0 0
0 0 0 0 0 0 0 0 0 0 0 0 0 0 0 0 0 -0 0 -0 0 0 0 0 0 0 0 0 0 0 0 0 0 0 -0 -0 -0 0 -0 0 0 -0 0 -0 -0 -0 -0 -0 0 0 0 0 0 0
0 0 0 0 0 0 0 0 0 0 0 0 0 0 0 0 0 0 0 0 0 0 0 0 0 0 0 0 0 0 0 0 -0 -0 -0 -0 -0 0 0 0 0 0 -0 -0 -0 0 0 0 0 0 0 0 0 0
0 0 0 0 0 0 0 0 0 -0 0 0 0 0 0 0 0 0 0 0 0 0 0 0 0 0 0 0 0 0 0 -0 0 -0 -0 -0 -0 -0 -0 -0 -0 -0 0 -0 0 0 0 0 0 0 0 0 0 0
0 0 0 0 0 0 0 -0 0 0 0 0 -0 -0 0 0 0 0 0 0 0 0 0 0 0 0 0 0 0 0 0 -0 0 -0 -0 -0 -0 -0 -0 -0 0 0 0 0 0 0 0 0 0 0 0 0 0 0
0 0 0 0 0 0 0 0 0 0 -0 -0 -0 -0 0 0 0 0 0 0 0 0 0 0 0 0 0 0 0 0 0 0 0 0 -0 -0 -0 -0 0 0 0 0 0 0 0 0 0 0 0 0 0 0 0 0
0 0 -0 0 0 0 0 0 -0 -0 -0 -0 -0 -0 -0 -0 -0 0 0 0 0 0 0 0 0 0 0 0 0 0 0 0 0 0 0 0 0 0 0 0 0 0 0 0 0 0 0 0 0 0 0 0 0 0
Wind_Speed_500mb
41 46 50 52 52 50 49 48 51 48 46 47 48 47 41 32 31 38 48 30 33 20 56 20 32 50 56 26 6 25 18 4 6 10 6 5 4 6 4 7 10 5 9 6 8 6 6 23 19 14 12 39 57 54
41 45 49 51 49 51 51 48 51 52 48 49 46 44 44 39 34 37 47 42 32 32 54 68 35 12 31 36 36 19 20 26 8 5 3 5 3 5 3 5 10 3 7 10 5 6 3 41 61 58 72 71 68 81
41 46 49 49 49 51 50 49 53 54 47 44 47 44 44 37 37 32 45 41 40 22 51 19 8 22 39 30 34 16 16 13 21 40 7 0 4 5 3 6 17 15 17 20 23 16 38 66 66 70 79 77 73 81
42 46 49 48 48 51 50 50 52 47 42 46 44 43 41 36 36 35 34 23 28 22 8 18 32 32 21 31 26 27 43 52 39 38 4 5 5 10 9 6 11 3 11 28 37 35 55 60 74 84 84 88 86 78
44 46 47 48 48 51 51 52 50 40 43 47 45 41 40 38 35 23 20 6 10 14 8 26 44 21 28 25 24 17 27 38 21 7 4 6 7 8 4 2 11 7 23 21 23 33 55 45 72 91 90 85 86 86
44 46 47 48 48 50 50 50 43 42 46 48 42 40 38 34 28 22 8 5 18 28 12 7 22 25 39 16 21 28 31 24 11 7 3 12 21 10 8 6 15 40 53 59 45 64 80 70 77 84 87 79 73 72
43 45 47 47 48 49 48 46 42 46 47 43 34 31 28 25 17 7 8 21 29 27 7 9 14 18 37 28 22 26 27 23 14 10 17 13 27 19 5 7 14 49 63 73 89 95 64 79 66 76 76 72 67 64
41 43 45 45 45 43 43 41 45 48 45 32 28 27 21 12 12 8 25 22 15 10 6 7 8 15 24 17 15 21 19 20 21 12 16 7 9 6 7 14 32 53 67 61 60 74 87 83 77 74 70 67 65 62
40 43 44 44 42 39 37 38 45 50 43 30 20 14 5 7 11 24 35 17 6 5 7 4 6 7 19 10 13 15 10 7 15 6 7 9 7 9 9 23 42 46 49 65 78 81 80 79 73 66 63 60 65 59
39 41 43 42 41 35 34 34 46 50 40 21 8 7 3 8 26 26 7 5 4 3 5 5 9 7 9 10 9 14 11 2 5 6 8 7 5 20 33 32 39 57 74 78 70 60 67 66 67 60 55 52 52 48
40 40 40 40 39 32 29 29 42 49 29 23 15 7 20 15 4 4 5 3 4 4 6 9 11 7 11 3 5 6 3 5 6 8 6 4 4 3 26 30 51 44 54 49 61 61 60 65 67 63 58 53 49 45
40 39 38 38 37 29 24 25 37 40 34 31 18 20 14 9 4 6 5 10 3 5 18 13 20 19 10 9 6 8 3 4 3 3 7 4 5 27 33 34 39 46 52 39 48 58 62 64 65 64 58 51 44 43
38 38 35 36 30 20 17 23 27 30 28 6 6 6 5 5 7 6 10 4 7 16 14 29 14 10 8 8 6 5 7 4 5 7 3 4 3 33 40 43 53 55 49 52 61 63 65 63 57 53 51 45 46 40
37 37 32 30 17 21 23 23 19 21 10 5 4 9 1 3 4 2 4 6 12 16 28 33 17 5 8 10 3 5 5 4 8 2 3 4 30 38 40 46 58 53 58 55 59 61 61 59 53 43 40 42 34 32
37 36 28 15 21 29 29 17 10 13 4 5 3 3 1 4 6 9 10 13 18 18 24 18 11 5 4 4 1 3 8 4 4 4 0 13 38 51 45 55 54 55 55 50 48 50 49 49 43 46 38 32 28 32
36 30 7 22 29 29 20 4 4 1 3 4 5 4 6 2 8 9 15 20 16 22 23 7 4 5 5 2 3 6 4 5 5 4 11 21 45 52 59 57 52 51 53 54 54 58 57 55 54 50 46 42 36 30
28 16 20 28 23 22 6 5 5 5 4 5 9 16 14 9 13 9 8 15 18 15 3 6 6 5 5 6 6 5 5 5 14 13 26 41 52 56 48 54 57 58 62 62 60 56 56 55 51 45 42 36 29 24
23 21 20 21 20 2 8 2 2 4 7 12 9 16 22 20 9 4 16 16 11 10 8 3 8 5 2 3 1 3 8 11 19 19 16 37 46 51 52 51 57 55 55 55 52 50 47 42 38 36 32 26 18 16
24 20 11 8 10 7 1 4 5 5 9 15 16 16 14 9 13 9 12 10 9 9 7 6 2 2 2 3 1 8 7 4 4 10 22 33 33 44 57 56 52 52 54 52 47 42 34 25 22 24 27 29 28 26
17 7 5 5 2 3 4 6 4 6 7 9 21 14 16 11 20 5 9 5 10 4 6 5 2 4 9 16 14 12 13 17 17 20 32 42 35 47 53 54 54 53 50 44 40 35 27 26 31 30 28 22 27 28
5 3 4 3 2 7 6 5 6 7 9 9 19 20 14 23 6 11 4 6 2 4 3 6 11 13 15 2 9 11 16 27 28 36 43 42 37 36 51 51 45 48 45 42 35 32 28 30 27 30 20 27 23 25
10 6 3 2 4 5 8 9 8 8 7 12 16 9 10 7 11 10 18 4 1 1 2 9 6 6 19 31 30 20 26 27 26 32 36 37 31 43 46 36 39 43 36 30 34 32 34 26 25 31 33 28 20 25
2 1 2 3 5 5 8 8 7 6 3 6 6 4 6 4 8 22 5 5 6 5 1 12 6 7 6 1 3 11 25 35 34 25 33 36 38 40 32 37 38 36 34 32 30 30 37 27 24 26 24 14 13 31
3 2 3 5 8 7 6 7 8 6 6 3 4 4 1 2 19 3 4 5 9 5 11 5 3 6 8 7 10 13 18 23 27 35 36 31 32 31 42 30 38 32 32 34 32 41 34 29 27 21 14 15 17 32
4 6 6 8 8 6 5 5 6 6 5 6 4 0 3 2 3 4 3 1 7 11 10 4 5 6 4 5 4 10 12 30 32 27 38 36 34 41 40 32 36 37 36 36 41 36 34 28 18 17 17 14 17 29
5 7 10 7 4 5 2 1 1 6 4 5 2 2 3 3 5 3 3 5 6 7 9 4 8 12 18 5 3 6 24 19 27 24 29 38 36 48 47 44 44 45 36 32 37 36 29 27 26 22 20 14 21 28
5 8 9 10 8 12 8 8 10 1 4 2 2 2 1 2 4 6 9 8 3 4 7 4 11 16 19 18 3 10 40 27 24 31 21 23 40 46 43 35 40 36 34 23 23 27 27 33 27 25 21 19 18 21
10 9 5 15 9 6 4 5 4 3 6 8 2 2 2 2 7 8 7 8 5 3 4 8 8 13 25 13 19 29 42 37 30 32 28 25 29 23 25 30 27 28 23 21 23 20 25 30 29 26 23 20 19 21
10 12 8 9 7 6 4 2 5 4 13 10 2 2 2 3 8 6 8 3 4 3 5 6 6 16 34 15 17 38 42 36 35 33 30 36 36 38 41 33 36 33 29 28 28 26 29 30 30 29 24 17 17 19
10 14 9 5 4 0 9 7 2 5 1 6 6 4 11 13 8 5 5 10 12 7 5 5 9 18 30 28 27 25 30 30 22 27 34 32 34 39 41 42 40 36 36 35 37 35 35 35 31 26 17 15 20 17
6 6 8 16 8 15 16 5 5 4 5 7 14 8 5 3 4 6 7 5 7 11 8 7 10 27 22 23 26 15 21 28 23 22 16 19 24 23 27 32 30 26 24 25 30 32 28 21 22 30 19 23 19 17
6 6 4 4 3 2 6 13 8 3 4 7 4 4 4 7 7 4 2 4 8 8 4 4 24 27 19 14 16 13 20 22 24 28 22 30 35 30 29 27 22 19 22 25 25 23 27 20 16 23 24 22 22 21
10 11 8 7 5 5 10 11 10 5 8 4 2 2 6 6 4 5 3 3 5 6 2 5 15 11 20 22 20 21 17 20 19 21 33 35 33 29 25 18 18 20 18 19 20 16 16 19 27 25 23 22 21 20
Wind_Direction_500mb
329 332 333 334 332 332 332 333 335 335 332 333 336 336 338 337 332 325 313 326 324 288 298 293 303 298 296 290 298 305 317 332 298 359 8 346 332 338 299 73 117 76 116 101 86 122 89 107 125 169 164 112 115 109
328 330 333 333 330 330 329 329 331 332 328 332 336 337 339 334 333 331 321 326 327 289 281 302 307 303 306 313 286 300 296 304 290 326 331 308 322 304 13 94 224 189 162 127 101 109 43 84 109 115 118 114 116 115
326 331 332 331 330 328 329 327 328 332 332 334 334 337 332 330 330 329 315 323 324 294 314 308 11 313 310 304 308 293 303 299 291 308 309 312 270 264 44 43 97 60 45 110 90 72 89 95 97 104 111 113 115 118
325 329 330 329 326 329 329 328 329 333 333 331 331 335 331 329 329 326 318 325 322 296 290 292 312 331 330 320 310 296 298 313 302 313 299 324 331 336 16 351 74 87 109 105 100 102 91 90 100 108 110 120 122 128
324 327 328 326 327 329 330 330 331 333 331 329 327 328 325 326 326 322 319 331 297 321 285 295 322 347 346 325 329 329 324 328 321 308 308 332 337 18 21 5 39 56 135 119 123 114 109 111 112 123 118 121 128 128
323 326 327 326 326 330 329 329 331 331 331 332 329 325 322 322 323 336 314 301 341 337 320 304 322 324 1 357 1 354 349 345 330 320 330 337 8 65 43 32 6 91 98 111 113 114 111 111 115 124 123 126 127 123
322 325 323 326 328 329 329 329 330 330 329 329 328 328 324 317 316 307 277 307 318 322 287 296 311 321 352 354 359 351 353 349 346 1 12 28 20 50 43 22 359 99 105 106 116 115 102 117 110 120 120 120 118 116
323 325 327 329 329 330 329 330 331 331 331 326 325 321 315 305 323 341 343 333 314 299 301 316 295 308 348 329 327 351 343 345 13 14 7 39 48 62 29 56 103 100 105 109 114 120 122 123 122 120 121 122 117 115
326 328 329 329 331 329 330 331 333 333 335 326 327 326 354 15 352 332 325 324 335 276 316 289 309 296 337 313 310 331 348 7 354 26 2 41 8 28 349 93 104 110 109 115 117 121 125 123 124 126 125 121 119 121
322 325 326 327 330 327 328 331 333 338 343 347 15 354 320 339 321 321 316 337 283 266 248 260 265 277 310 333 319 355 358 31 32 298 12 63 43 56 68 107 130 124 129 132 126 126 124 123 129 129 123 124 123 124
320 321 326 325 326 324 326 333 337 340 352 14 7 331 303 317 315 293 291 225 238 261 233 267 264 277 320 2 274 352 280 350 43 289 92 40 21 350 88 113 138 135 133 131 135 133 136 139 138 132 132 130 128 128
314 322 324 322 323 321 324 330 335 336 344 331 318 308 331 348 348 353 329 351 301 10 348 344 328 305 316 316 16 331 13 23 349 316 55 53 293 120 112 117 141 137 127 122 144 144 146 145 143 140 135 130 130 131
315 319 322 321 320 322 320 325 325 325 335 348 319 313 296 346 37 27 360 340 352 344 337 332 327 311 331 354 318 2 3 268 347 47 86 244 85 128 119 126 134 138 137 118 124 132 139 140 140 135 132 133 134 130
314 320 318 314 301 314 316 317 313 329 345 312 318 327 116 16 30 99 209 246 291 301 323 319 309 325 339 357 335 349 291 35 15 63 156 275 144 140 139 134 138 128 128 127 121 124 127 128 130 131 132 136 135 131
316 317 309 296 302 314 314 305 277 302 282 279 305 294 31 326 301 305 313 296 305 304 324 322 313 293 292 321 332 321 360 39 13 276 301 85 144 139 140 141 143 138 142 140 137 134 135 133 132 134 133 133 142 135
315 323 322 306 320 323 310 296 158 198 289 276 244 283 283 7 309 319 317 302 334 332 322 274 283 11 307 235 334 354 45 9 319 281 24 138 142 136 132 134 140 144 145 143 142 139 136 137 139 137 138 139 140 143
313 319 306 308 326 325 273 158 147 226 260 238 249 243 249 264 253 252 276 315 324 330 324 318 340 8 324 14 41 44 69 334 32 23 76 138 140 141 142 138 137 141 138 136 135 136 136 139 142 144 138 139 143 143
297 314 310 318 327 16 104 147 186 246 260 248 250 253 238 245 254 321 309 314 306 324 318 338 309 2 359 41 357 52 65 48 42 95 111 122 135 143 148 145 143 142 140 141 142 142 144 148 150 145 146 149 153 136
312 312 301 285 338 337 246 202 223 257 264 291 287 303 257 263 222 263 329 315 292 340 300 324 266 83 49 29 114 284 302 345 319 101 127 157 130 144 148 148 147 147 147 146 146 149 153 161 160 153 144 138 132 131
301 289 248 243 256 278 278 274 220 258 270 290 301 305 299 268 163 345 327 271 261 330 340 21 353 313 245 251 262 254 226 200 191 159 135 148 139 157 150 149 149 148 146 146 147 146 142 140 144 145 149 157 162 164
114 273 283 235 249 231 257 277 249 253 285 275 292 329 302 170 191 259 172 190 263 55 33 296 313 334 3 36 166 154 153 167 169 167 144 135 155 163 155 152 155 151 151 153 156 160 156 152 163 171 181 173 164 171
196 245 218 249 253 234 263 235 256 284 270 268 293 237 255 238 196 177 141 103 134 160 149 329 341 65 99 93 95 116 127 132 150 158 161 151 147 151 147 152 162 156 159 161 164 165 166 170 164 167 177 173 169 164
202 327 296 263 272 237 258 221 252 239 208 256 273 248 248 151 127 145 89 112 110 78 33 320 274 202 168 133 220 149 142 143 155 168 172 174 173 170 167 171 167 169 169 176 175 184 180 178 180 174 175 169 176 167
293 242 248 259 231 258 256 220 230 254 264 261 247 267 71 179 165 103 86 94 118 27 358 8 197 205 203 265 241 226 202 201 205 185 178 184 182 190 180 180 184 181 182 180 177 177 181 184 183 185 170 151 148 180
278 230 213 269 235 259 236 229 212 212 245 235 248 243 294 171 107 84 95 84 3 346 350 242 188 178 76 109 234 177 192 182 171 177 189 188 180 178 187 194 191 190 186 182 183 184 181 184 186 167 164 176 184 194
247 225 189 245 235 213 57 267 343 294 276 225 192 196 11 39 73 88 134 222 276 303 314 238 241 204 210 201 112 152 184 168 159 149 214 221 212 202 199 194 193 187 193 201 193 187 185 185 179 194 205 217 203 198
261 278 239 242 250 288 306 301 304 240 270 130 232 80 255 135 131 207 192 191 248 302 313 322 228 205 188 192 122 165 165 161 161 131 144 180 181 175 171 177 189 183 179 197 201 184 188 183 190 201 213 199 204 215
246 271 238 343 318 290 279 290 298 41 311 349 342 346 161 120 205 186 184 180 193 2 321 346 224 206 193 180 107 154 164 160 156 159 176 173 160 173 190 187 186 181 187 191 183 190 193 197 204 217 218 226 220 214
243 247 299 289 292 266 249 296 77 88 314 330 28 43 121 107 148 179 212 202 321 358 354 325 231 178 184 157 119 158 159 170 166 159 154 159 184 186 184 185 185 184 190 191 198 203 204 210 213 207 198 208 225 220
240 219 233 282 225 43 12 326 137 151 37 6 348 14 103 128 112 165 173 208 227 252 313 349 182 174 180 168 158 162 170 184 187 178 169 167 169 173 183 189 192 199 201 204 201 198 198 191 182 182 193 232 218 209
270 352 290 230 241 248 258 186 173 229 269 338 327 306 258 200 164 233 249 223 256 270 251 238 214 190 177 182 203 190 203 200 207 205 192 192 188 193 199 200 202 200 198 203 196 190 186 191 216 262 239 203 212 227
220 213 288 314 337 63 234 210 194 142 1 311 281 233 194 198 185 208 198 216 242 239 285 205 171 185 196 177 168 173 179 183 191 199 208 205 198 198 201 204 206 217 230 225 223 227 251 244 191 182 200 215 220 220
234 248 265 289 261 235 191 179 187 201 223 290 260 220 208 180 174 191 202 217 234 224 206 202 197 169 162 167 168 173 175 179 186 192 183 184 184 189 190 196 239 241 219 207 202 189 192 203 202 208 216 224 229 241
Wind_Speed_850mb
41 46 50 52 52 50 49 48 51 48 46 47 48 47 41 32 31 38 48 30 33 20 56 20 32 50 56 26 6 25 18 4 6 10 6 5 4 6 4 7 10 5 9 6 8 6 6 23 19 14 12 39 57 54
41 45 49 51 49 51 51 48 51 52 48 49 46 44 44 39 34 37 47 42 32 32 54 68 35 12 31 36 36 19 20 26 8 5 3 5 3 5 3 5 10 3 7 10 5 6 3 41 61 58 72 71 68 81
41 46 49 49 49 51 50 49 53 54 47 44 47 44 44 37 37 32 45 41 40 22 51 19 8 22 39 30 34 16 16 13 21 40 7 0 4 5 3 6 17 15 17 20 23 16 38 66 66 70 79 77 73 81
42 46 49 48 48 51 50 50 52 47 42 46 44 43 41 36 36 35 34 23 28 22 8 18 32 32 21 31 26 27 43 52 39 38 4 5 5 10 9 6 11 3 11 28 37 35 55 60 74 84 84 88 86 78
44 46 47 48 48 51 51 52 50 40 43 47 45 41 40 38 35 23 20 6 10 14 8 26 44 21 28 25 24 17 27 38 21 7 4 6 7 8 4 2 11 7 23 21 23 33 55 45 72 91 90 85 86 86
44 46 47 48 48 50 50 50 43 42 46 48 42 40 38 34 28 22 8 5 18 28 12 7 22 25 39 16 21 28 31 24 11 7 3 12 21 10 8 6 15 40 53 59 45 64 80 70 77 84 87 79 73 72
43 45 47 47 48 49 48 46 42 46 47 43 34 31 28 25 17 7 8 21 29 27 7 9 14 18 37 28 22 26 27 23 14 10 17 13 27 19 5 7 14 49 63 73 89 95 64 79 66 76 76 72 67 64
41 43 45 45 45 43 43 41 45 48 45 32 28 27 21 12 12 8 25 22 15 10 6 7 8 15 24 17 15 21 19 20 21 12 16 7 9 6 7 14 32 53 67 61 60 74 87 83 77 74 70 67 65 62
40 43 44 44 42 39 37 38 45 50 43 30 20 14 5 7 11 24 35 17 6 5 7 4 6 7 19 10 13 15 10 7 15 6 7 9 7 9 9 23 42 46 49 65 78 81 80 79 73 66 63 60 65 59
39 41 43 42 41 35 34 34 46 50 40 21 8 7 3 8 26 26 7 5 4 3 5 5 9 7 9 10 9 14 11 2 5 6 8 7 5 20 33 32 39 57 74 78 70 60 67 66 67 60 55 52 52 48
40 40 40 40 39 32 29 29 42 49 29 23 15 7 20 15 4 4 5 3 4 4 6 9 11 7 11 3 5 6 3 5 6 8 6 4 4 3 26 30 51 44 54 49 61 61 60 65 67 63 58 53 49 45
40 39 38 38 37 29 24 25 37 40 34 31 18 20 14 9 4 6 5 10 3 5 18 13 20 19 10 9 6 8 3 4 3 3 7 4 5 27 33 34 39 46 52 39 48 58 62 64 65 64 58 51 44 43
38 38 35 36 30 20 17 23 27 30 28 6 6 6 5 5 7 6 10 4 7 16 14 29 14 10 8 8 6 5 7 4 5 7 3 4 3 33 40 43 53 55 49 52 61 63 65 63 57 53 51 45 46 40
37 37 32 30 17 21 23 23 19 21 10 5 4 9 1 3 4 2 4 6 12 16 28 33 17 5 8 10 3 5 5 4 8 2 3 4 30 38 40 46 58 53 58 55 59 61 61 59 53 43 40 42 34 32
37 36 28 15 21 29 29 17 10 13 4 5 3 3 1 4 6 9 10 13 18 18 24 18 11 5 4 4 1 3 8 4 4 4 0 13 38 51 45 55 54 55 55 50 48 50 49 49 43 46 38 32 28 32
36 30 7 22 29 29 20 4 4 1 3 4 5 4 6 2 8 9 15 20 16 22 23 7 4 5 5 2 3 6 4 5 5 4 11 21 45 52 59 57 52 51 53 54 54 58 57 55 54 50 46 42 36 30
28 16 20 28 23 22 6 5 5 5 4 5 9 16 14 9 13 9 8 15 18 15 3 6 6 5 5 6 6 5 5 5 14 13 26 41 52 56 48 54 57 58 62 62 60 56 56 55 51 45 42 36 29 24
23 21 20 21 20 2 8 2 2 4 7 12 9 16 22 20 9 4 16 16 11 10 8 3 8 5 2 3 1 3 8 11 19 19 16 37 46 51 52 51 57 55 55 55 52 50 47 42 38 36 32 26 18 16
24 20 11 8 10 7 1 4 5 5 9 15 16 16 14 9 13 9 12 10 9 9 7 6 2 2 2 3 1 8 7 4 4 10 22 33 33 44 57 56 52 52 54 52 47 42 34 25 22 24 27 29 28 26
17 7 5 5 2 3 4 6 4 6 7 9 21 14 16 11 20 5 9 5 10 4 6 5 2 4 9 16 14 12 13 17 17 20 32 42 35 47 53 54 54 53 50 44 40 35 27 26 31 30 28 22 27 28
5 3 4 3 2 7 6 5 6 7 9 9 19 20 14 23 6 11 4 6 2 4 3 6 11 13 15 2 9 11 16 27 28 36 43 42 37 36 51 51 45 48 45 42 35 32 28 30 27 30 20 27 23 25
10 6 3 2 4 5 8 9 8 8 7 12 16 9 10 7 11 10 18 4 1 1 2 9 6 6 19 31 30 20 26 27 26 32 36 37 31 43 46 36 39 43 36 30 34 32 34 26 25 31 33 28 20 25
2 1 2 3 5 5 8 8 7 6 3 6 6 4 6 4 8 22 5 5 6 5 1 12 6 7 6 1 3 11 25 35 34 25 33 36 38 40 32 37 38 36 34 32 30 30 37 27 24 26 24 14 13 31
3 2 3 5 8 7 6 7 8 6 6 3 4 4 1 2 19 3 4 5 9 5 11 5 3 6 8 7 10 13 18 23 27 35 36 31 32 31 42 30 38 32 32 34 32 41 34 29 27 21 14 15 17 32
4 6 6 8 8 6 5 5 6 6 5 6 4 0 3 2 3 4 3 1 7 11 10 4 5 6 4 5 4 10 12 30 32 27 38 36 34 41 40 32 36 37 36 36 41 36 34 28 18 17 17 14 17 29
5 7 10 7 4 5 2 1 1 6 4 5 2 2 3 3 5 3 3 5 6 7 9 4 8 12 18 5 3 6 24 19 27 24 29 38 36 48 47 44 44 45 36 32 37 36 29 27 26 22 20 14 21 28
5 8 9 10 8 12 8 8 10 1 4 2 2 2 1 2 4 6 9 8 3 4 7 4 11 16 19 18 3 10 40 27 24 31 21 23 40 46 43 35 40 36 34 23 23 27 27 33 27 25 21 19 18 21
10 9 5 15 9 6 4 5 4 3 6 8 2 2 2 2 7 8 7 8 5 3 4 8 8 13 25 13 19 29 42 37 30 32 28 25 29 23 25 30 27 28 23 21 23 20 25 30 29 26 23 20 19 21
10 12 8 9 7 6 4 2 5 4 13 10 2 2 2 3 8 6 8 3 4 3 5 6 6 16 34 15 17 38 42 36 35 33 30 36 36 38 41 33 36 33 29 28 28 26 29 30 30 29 24 17 17 19
10 14 9 5 4 0 9 7 2 5 1 6 6 4 11 13 8 5 5 10 12 7 5 5 9 18 30 28 27 25 30 30 22 27 34 32 34 39 41 42 40 36 36 35 37 35 35 35 31 26 17 15 20 17
6 6 8 16 8 15 16 5 5 4 5 7 14 8 5 3 4 6 7 5 7 11 8 7 10 27 22 23 26 15 21 28 23 22 16 19 24 23 27 32 30 26 24 25 30 32 28 21 22 30 19 23 19 17
6 6 4 4 3 2 6 13 8 3 4 7 4 4 4 7 7 4 2 4 8 8 4 4 24 27 19 14 16 13 20 22 24 28 22 30 35 30 29 27 22 19 22 25 25 23 27 20 16 23 24 22 22 21
10 11 8 7 5 5 10 11 10 5 8 4 2 2 6 6 4 5 3 3 5 6 2 5 15 11 20 22 20 21 17 20 19 21 33 35 33 29 25 18 18 20 18 19 20 16 16 19 27 25 23 22 21 20
Wind_Direction_850mb
329 332 333 334 332 332 332 333 335 335 332 333 336 336 338 337 332 325 313 326 324 288 298 293 303 298 296 290 298 305 317 332 298 359 8 346 332 338 299 73 117 76 116 101 86 122 89 107 125 169 164 112 115 109
328 330 333 333 330 330 329 329 331 332 328 332 336 337 339 334 333 331 321 326 327 289 281 302 307 303 306 313 286 300 296 304 290 326 331 308 322 304 13 94 224 189 162 127 101 109 43 84 109 115 118 114 116 115
326 331 332 331 330 328 329 327 328 332 332 334 334 337 332 330 330 329 315 323 324 294 314 308 11 313 310 304 308 293 303 299 291 308 309 312 270 264 44 43 97 60 45 110 90 72 89 95 97 104 111 113 115 118
325 329 330 329 326 329 329 328 329 333 333 331 331 335 331 329 329 326 318 325 322 296 290 292 312 331 330 320 310 296 298 313 302 313 299 324 331 336 16 351 74 87 109 105 100 102 91 90 100 108 110 120 122 128
324 327 328 326 327 329 330 330 331 333 331 329 327 328 325 326 326 322 319 331 297 321 285 295 322 347 346 325 329 329 324 328 321 308 308 332 337 18 21 5 39 56 135 119 123 114 109 111 112 123 118 121 128 128
323 326 327 326 326 330 329 329 331 331 331 332 329 325 322 322 323 336 314 301 341 337 320 304 322 324 1 357 1 354 349 345 330 320 330 337 8 65 43 32 6 91 98 111 113 114 111 111 115 124 123 126 127 123
322 325 323 326 328 329 329 329 330 330 329 329 328 328 324 317 316 307 277 307 318 322 287 296 311 321 352 354 359 351 353 349 346 1 12 28 20 50 43 22 359 99 105 106 116 115 102 117 110 120 120 120 118 116
323 325 327 329 329 330 329 330 331 331 331 326 325 321 315 305 323 341 343 333 314 299 301 316 295 308 348 329 327 351 343 345 13 14 7 39 48 62 29 56 103 100 105 109 114 120 122 123 122 120 121 122 117 115
326 328 329 329 331 329 330 331 333 333 335 326 327 326 354 15 352 332 325 324 335 276 316 289 309 296 337 313 310 331 348 7 354 26 2 41 8 28 349 93 104 110 109 115 117 121 125 123 124 126 125 121 119 121
322 325 326 327 330 327 328 331 333 338 343 347 15 354 320 339 321 321 316 337 283 266 248 260 265 277 310 333 319 355 358 31 32 298 12 63 43 56 68 107 130 124 129 132 126 126 124 123 129 129 123 124 123 124
320 321 326 325 326 324 326 333 337 340 352 14 7 331 303 317 315 293 291 225 238 261 233 267 264 277 320 2 274 352 280 350 43 289 92 40 21 350 88 113 138 135 133 131 135 133 136 139 138 132 132 130 128 128
314 322 324 322 323 321 324 330 335 336 344 331 318 308 331 348 348 353 329 351 301 10 348 344 328 305 316 316 16 331 13 23 349 316 55 53 293 120 112 117 141 137 127 122 144 144 146 145 143 140 135 130 130 131
315 319 322 321 320 322 320 325 325 325 335 348 319 313 296 346 37 27 360 340 352 344 337 332 327 311 331 354 318 2 3 268 347 47 86 244 85 128 119 126 134 138 137 118 124 132 139 140 140 135 132 133 134 130
314 320 318 314 301 314 316 317 313 329 345 312 318 327 116 16 30 99 209 246 291 301 323 319 309 325 339 357 335 349 291 35 15 63 156 275 144 140 139 134 138 128 128 127 121 124 127 128 130 131 132 136 135 131
316 317 309 296 302 314 314 305 277 302 282 279 305 294 31 326 301 305 313 296 305 304 324 322 313 293 292 321 332 321 360 39 13 276 301 85 144 139 140 141 143 138 142 140 137 134 135 133 132 134 133 133 142 135
315 323 322 306 320 323 310 296 158 198 289 276 244 283 283 7 309 319 317 302 334 332 322 274 283 11 307 235 334 354 45 9 319 281 24 138 142 136 132 134 140 144 145 143 142 139 136 137 139 137 138 139 140 143
313 319 306 308 326 325 273 158 147 226 260 238 249 243 249 264 253 252 276 315 324 330 324 318 340 8 324 14 41 44 69 334 32 23 76 138 140 141 142 138 137 141 138 136 135 136 136 139 142 144 138 139 143 143
297 314 310 318 327 16 104 147 186 246 260 248 250 253 238 245 254 321 309 314 306 324 318 338 309 2 359 41 357 52 65 48 42 95 111 122 135 143 148 145 143 142 140 141 142 142 144 148 150 145 146 149 153 136
312 312 301 285 338 337 246 202 223 257 264 291 287 303 257 263 222 263 329 315 292 340 300 324 266 83 49 29 114 284 302 345 319 101 127 157 130 144 148 148 147 147 147 146 146 149 153 161 160 153 144 138 132 131
301 289 248 243 256 278 278 274 220 258 270 290 301 305 299 268 163 345 327 271 261 330 340 21 353 313 245 251 262 254 226 200 191 159 135 148 139 157 150 149 149 148 146 146 147 146 142 140 144 145 149 157 162 164
114 273 283 235 249 231 257 277 249 253 285 275 292 329 302 170 191 259 172 190 263 55 33 296 313 334 3 36 166 154 153 167 169 167 144 135 155 163 155 152 155 151 151 153 156 160 156 152 163 171 181 173 164 171
196 245 218 249 253 234 263 235 256 284 270 268 293 237 255 238 196 177 141 103 134 160 149 329 341 65 99 93 95 116 127 132 150 158 161 151 147 151 147 152 162 156 159 161 164 165 166 170 164 167 177 173 169 164
202 327 296 263 272 237 258 221 252 239 208 256 273 248 248 151 127 145 89 112 110 78 33 320 274 202 168 133 220 149 142 143 155 168 172 174 173 170 167 171 167 169 169 176 175 184 180 178 180 174 175 169 176 167
293 242 248 259 231 258 256 220 230 254 264 261 247 267 71 179 165 103 86 94 118 27 358 8 197 205 203 265 241 226 202 201 205 185 178 184 182 190 180 180 184 181 182 180 177 177 181 184 183 185 170 151 148 180
278 230 213 269 235 259 236 229 212 212 245 235 248 243 294 171 107 84 95 84 3 346 350 242 188 178 76 109 234 177 192 182 171 177 189 188 180 178 187 194 191 190 186 182 183 184 181 184 186 167 164 176 184 194
247 225 189 245 235 213 57 267 343 294 276 225 192 196 11 39 73 88 134 222 276 303 314 238 241 204 210 201 112 152 184 168 159 149 214 221 212 202 199 194 193 187 193 201 193 187 185 185 179 194 205 217 203 198
261 278 239 242 250 288 306 301 304 240 270 130 232 80 255 135 131 207 192 191 248 302 313 322 228 205 188 192 122 165 165 161 161 131 144 180 181 175 171 177 189 183 179 197 201 184 188 183 190 201 213 199 204 215
246 271 238 343 318 290 279 290 298 41 311 349 342 346 161 120 205 186 184 180 193 2 321 346 224 206 193 180 107 154 164 160 156 159 176 173 160 173 190 187 186 181 187 191 183 190 193 197 204 217 218 226 220 214
243 247 299 289 292 266 249 296 77 88 314 330 28 43 121 107 148 179 212 202 321 358 354 325 231 178 184 157 119 158 159 170 166 159 154 159 184 186 184 185 185 184 190 191 198 203 204 210 213 207 198 208 225 220
240 219 233 282 225 43 12 326 137 151 37 6 348 14 103 128 112 165 173 208 227 252 313 349 182 174 180 168 158 162 170 184 187 178 169 167 169 173 183 189 192 199 201 204 201 198 198 191 182 182 193 232 218 209
270 352 290 230 241 248 258 186 173 229 269 338 327 306 258 200 164 233 249 223 256 270 251 238 214 190 177 182 203 190 203 200 207 205 192 192 188 193 199 200 202 200 198 203 196 190 186 191 216 262 239 203 212 227
220 213 288 314 337 63 234 210 194 142 1 311 281 233 194 198 185 208 198 216 242 239 285 205 171 185 196 177 168 173 179 183 191 199 208 205 198 198 201 204 206 217 230 225 223 227 251 244 191 182 200 215 220 220
234 248 265 289 261 235 191 179 187 201 223 290 260 220 208 180 174 191 202 217 234 224 206 202 197 169 162 167 168 173 175 179 186 192 183 184 184 189 190 196 239 241 219 207 202 189 192 203 202 208 216 224 229 241